MST,Max TemperatureF,Mean TemperatureF,Min TemperatureF,Max Dew PointF,MeanDew PointF,Min DewpointF,Max Humidity, Mean Humidity, Min Humidity, Max Sea Level PressureIn, Mean Sea Level PressureIn, Min Sea Level PressureIn, Max VisibilityMiles, Mean VisibilityMiles, Min VisibilityMiles, Max Wind SpeedMPH, Mean Wind SpeedMPH, Max Gust SpeedMPH,PrecipitationIn, CloudCover, Events, WindDirDegrees
2013-1-1,26,14,1,20,11,-1,95,85,75,30.35,30.27,30.15,10,9,4,13,7,15,T,2,Snow,238
2013-1-2,36,20,3,22,12,3,91,71,51,30.43,30.34,30.26,10,10,8,18,8,21,0.00,1,,250
2013-1-3,36,18,0,19,10,-4,88,68,47,30.52,30.42,30.32,10,10,10,14,7,23,0.00,1,,232
2013-1-4,39,19,-2,19,6,-6,91,62,33,30.38,30.26,30.12,10,10,10,15,5,17,0.00,0,,233
2013-1-5,46,23,0,22,13,-2,95,66,37,30.41,30.29,30.12,10,10,10,18,8,22,0.00,0,,259
2013-1-6,42,23,4,24,16,0,92,69,46,30.44,30.23,30.03,10,10,10,22,7,25,0.00,0,,214
2013-1-7,51,35,18,25,20,15,91,60,29,30.06,29.97,29.87,10,10,10,9,3,10,0.00,0,,38
2013-1-8,55,35,15,25,18,8,92,60,28,30.28,30.02,29.84,10,10,10,16,5,17,0.00,0,,226
2013-1-9,53,35,17,29,22,14,91,60,29,30.51,30.32,30.17,10,10,10,17,7,24,0.00,0,,203
2013-1-10,45,37,29,37,33,28,100,88,76,30.14,29.78,29.52,10,7,0,12,3,15,T,6,Fog,262
2013-1-11,58,36,13,29,17,-3,100,58,15,29.87,29.58,29.32,10,10,10,43,16,56,0.00,0,,214
2013-1-12,28,15,2,11,5,-2,92,65,38,30.20,30.09,29.90,10,10,10,14,5,22,0.00,1,,48
2013-1-13,24,15,6,7,5,2,80,63,46,30.31,30.25,30.20,10,10,10,10,3,13,0.00,4,,101
2013-1-14,28,20,11,20,13,7,92,71,50,30.35,30.21,30.10,10,6,1,18,11,23,0.01,7,Snow,152
2013-1-15,33,17,0,13,8,0,96,62,28,30.30,30.21,30.11,10,9,4,17,8,20,T,5,,265
2013-1-16,56,38,19,24,18,7,84,54,24,30.40,30.23,30.13,10,10,10,21,9,24,0.00,2,,285
2013-1-17,54,34,14,22,18,12,88,56,24,30.57,30.42,30.26,10,10,10,21,8,25,0.00,0,,205
2013-1-18,63,40,17,19,11,4,75,42,9,30.25,30.14,30.04,10,10,10,18,8,22,0.00,0,,251
2013-1-19,62,40,17,15,9,4,59,36,12,30.28,30.18,30.04,10,10,10,16,8,18,0.00,0,,229
2013-1-20,57,35,13,20,12,7,84,50,15,30.36,30.21,30.08,10,10,10,28,10,35,0.00,0,,29
2013-1-21,53,36,19,22,18,11,96,59,22,30.35,30.23,30.08,10,10,8,13,4,14,0.00,4,,223
2013-1-22,61,39,17,14,8,1,73,41,9,30.22,30.13,30.05,10,10,10,15,6,18,0.00,0,,249
2013-1-23,68,40,12,20,5,-4,74,41,7,30.25,30.17,30.05,10,10,10,17,8,22,0.00,0,,245
2013-1-24,44,31,18,21,19,16,91,67,43,30.23,30.14,30.02,10,9,7,13,5,14,0.00,0,,111
2013-1-25,60,39,18,24,20,14,84,54,24,30.31,30.17,30.04,10,10,10,20,6,23,0.00,0,,186
2013-1-26,56,40,23,44,27,16,89,61,32,30.06,29.89,29.64,10,10,9,17,6,24,T,1,Rain,176
2013-1-27,63,43,23,36,31,22,92,64,36,29.78,29.70,29.63,10,10,6,12,5,14,0.00,0,,206
2013-1-28,72,46,20,32,25,19,100,58,15,29.73,29.63,29.44,10,8,1,30,10,37,0.00,4,,249
2013-1-29,36,26,15,30,23,10,85,67,49,29.94,29.70,29.60,10,7,1,28,12,36,0.01,6,Snow,12
2013-1-30,44,27,9,17,11,5,84,52,20,30.10,30.00,29.88,10,10,10,17,9,23,0.00,0,,251
2013-1-31,47,30,12,25,18,9,92,65,37,30.29,30.15,29.96,10,10,7,16,7,20,0.00,0,,125